Location: ????
(30.1475°N, 31.1342°E)
Time: 01:50:03
(UTC+00:00)

METEOR-M - Pass Details

Date: 27 September 2022
Orbit: 815 x 820 km, 98.6° (Epoch: 01 December)

Event Time Altitude Azimuth Distance (km) Brightness Sun altitude
Rises 01:41:04 0° 10° (N) 3,353 7.6 -27.6°
Reaches altitude 10° 01:43:25 10° 9° (N) 2,417 6.8 -27.2°
Maximum altitude 01:48:46 76° 284° (WNW) 845 4.0 -26.0°
Enters shadow 01:48:49 76° 277° (W) 845 3.9 -26.0°
